Weather History for Griffin-Spaldg Cnty AP, Griff, GA

Change the Weather History Date:

Monday, August 26, 2013

  Actual Average (KFFC) Record (KFFC)
Temperature  
Mean Temperature 70 °F 78 °F  
Max Temperature 80 °F 88 °F 99 °F (2011)
Min Temperature 60 °F 67 °F 57 °F (2013)
Degree Days  
Heating Degree Days 0 0  
Month to date heating degree days 0  
Since 1 June heating degree days 1  
Since 1 July heating degree days 0  
Cooling Degree Days 5 13  
Month to date cooling degree days 358  
Year to date cooling degree days 1318  
Since 1 June cooling degree days 1128  
Growing Degree Days 20 (Base 50)    
Moisture  
Dew Point -    
Average Humidity    
Maximum Humidity    
Minimum Humidity    
Precipitation  
Precipitation 0.00 in 0.16 in 1.01 in (2010)
Month to date precipitation 3.61  
Year to date precipitation 34.02  
Snow  
Snow 0.00 in - - ()
Month to date snowfall  
Since 1 June snowfall  
Since 1 July snowfall  
Snow Depth -    
Sea Level Pressure  
Sea Level Pressure 30.27 in    
Wind  
Wind Speed 2 mph (ENE)    
Max Wind Speed 9 mph    
Max Gust Speed -    
Visibility 10 miles    
Events      
T = Trace of Precipitation, MM = Missing Value Source: NWS Daily Summary

Daily Weather History Graph

Daily Weather History Graph

Search for Another Location

Airport:

Trip Planner

Search our weather history database for the weather conditions in past years. The results will help you decide how hot, cold, wet, or windy it might be!

Date:

Astronomy

Aug. 26, 2013 Rise Set
Actual Time 7:07 AM EDT 8:09 PM EDT
Civil Twilight 6:41 AM EDT 8:35 PM EDT
Nautical Twilight 6:11 AM EDT 9:05 PM EDT
Astronomical Twilight 5:40 AM EDT 9:36 PM EDT
Moon 11:41 PM EDT (8/26) 12:47 PM EDT (8/26)
Length of Visible Light 13h 53m
Length of Day
13h 01m
Waning Gibbous, 67% of the Moon is Illuminated
Aug 26
Waning Gibbous
Aug 28
Last Quarter
Sep 5
New
Sep 12
First Quarter
Sep 19
Full

Hourly Weather History & Observations

Time (EDT) Temp. Dew Point Humidity Pressure Visibility Wind Dir Wind Speed Gust Speed Precip Events Conditions
12:15 AM 64.4 °F - N/A% 30.32 in 10.0 mi Calm Calm - N/A   Clear
12:35 AM 64.4 °F - N/A% 30.31 in 10.0 mi Calm Calm - N/A   Scattered Clouds
12:55 AM 64.4 °F - N/A% 30.32 in 10.0 mi NNE 3.5 mph - N/A   Scattered Clouds
1:15 AM 64.4 °F - N/A% 30.32 in 10.0 mi Calm Calm - N/A   Clear
1:35 AM 68.0 °F - N/A% 30.31 in 10.0 mi Calm Calm - N/A   Scattered Clouds
1:55 AM 64.4 °F - N/A% 30.30 in 10.0 mi Calm Calm - N/A   Clear
2:15 AM 64.4 °F - N/A% 30.30 in 10.0 mi Calm Calm - N/A   Clear
2:35 AM 64.4 °F - N/A% 30.30 in 10.0 mi Calm Calm - N/A   Clear
2:55 AM 62.6 °F - N/A% 30.30 in 10.0 mi Calm Calm - N/A   Clear
3:15 AM 64.4 °F - N/A% 30.29 in 10.0 mi Calm Calm - N/A   Scattered Clouds
3:35 AM 64.4 °F - N/A% 30.29 in 10.0 mi Calm Calm - N/A   Scattered Clouds
3:55 AM 64.4 °F - N/A% 30.30 in 10.0 mi Calm Calm - N/A   Scattered Clouds
4:15 AM 64.4 °F - N/A% 30.29 in 10.0 mi Calm Calm - N/A   Scattered Clouds
4:35 AM 64.4 °F - N/A% 30.29 in 10.0 mi Calm Calm - N/A   Clear
4:55 AM 62.6 °F - N/A% 30.29 in 10.0 mi Calm Calm - N/A   Clear
5:15 AM 62.6 °F - N/A% 30.29 in 10.0 mi Calm Calm - N/A   Clear
5:35 AM 62.6 °F - N/A% 30.29 in 10.0 mi NE 3.5 mph - N/A   Scattered Clouds
5:55 AM 62.6 °F - N/A% 30.29 in 10.0 mi Calm Calm - N/A   Scattered Clouds
6:15 AM 60.8 °F - N/A% 30.29 in 10.0 mi NE 3.5 mph - N/A   Clear
6:35 AM 60.8 °F - N/A% 30.29 in 10.0 mi NNE 3.5 mph - N/A   Clear
6:55 AM 62.6 °F - N/A% 30.29 in 10.0 mi NE 3.5 mph - N/A   Clear
7:15 AM 60.8 °F - N/A% 30.29 in 10.0 mi Calm Calm - N/A   Clear
7:35 AM 60.8 °F - N/A% 30.29 in 10.0 mi Calm Calm - N/A   Clear
7:55 AM 62.6 °F - N/A% 30.29 in 10.0 mi Calm Calm - N/A   Clear
8:15 AM 64.4 °F - N/A% 30.30 in 10.0 mi Calm Calm - N/A   Clear
8:35 AM 68.0 °F - N/A% 30.30 in 10.0 mi NE 4.6 mph - N/A   Clear
8:55 AM 69.8 °F - N/A% 30.31 in 10.0 mi NE 4.6 mph - N/A   Clear
9:15 AM 69.8 °F - N/A% 30.31 in 10.0 mi NNE 3.5 mph - N/A   Clear
9:35 AM 69.8 °F - N/A% 30.32 in 10.0 mi Calm Calm - N/A   Clear
9:55 AM 71.6 °F - N/A% 30.32 in 10.0 mi ENE 3.5 mph - N/A   Clear
10:15 AM 73.4 °F - N/A% 30.32 in 10.0 mi NE 5.8 mph - N/A   Clear
10:35 AM 73.4 °F - N/A% 30.33 in 10.0 mi East 5.8 mph - N/A   Clear
10:55 AM 73.4 °F - N/A% 30.33 in 10.0 mi East 4.6 mph - N/A   Clear
11:15 AM 77.0 °F - N/A% 30.32 in 10.0 mi NE 6.9 mph - N/A   Clear
11:35 AM 77.0 °F - N/A% 30.33 in 10.0 mi NE 6.9 mph - N/A   Clear
11:55 AM 77.0 °F - N/A% 30.33 in 10.0 mi Calm Calm - N/A   Clear
12:15 PM 77.0 °F - N/A% 30.32 in 10.0 mi ENE 4.6 mph - N/A   Clear
12:35 PM 78.8 °F - N/A% 30.32 in 10.0 mi NE 4.6 mph - N/A   Clear
12:55 PM 78.8 °F - N/A% 30.32 in 10.0 mi ENE 4.6 mph - N/A   Clear
1:15 PM 78.8 °F - N/A% 30.31 in 10.0 mi NE 8.1 mph - N/A   Clear
1:35 PM 78.8 °F - N/A% 30.31 in 10.0 mi East 4.6 mph - N/A   Clear
1:55 PM 78.8 °F - N/A% 30.30 in 10.0 mi ENE 5.8 mph - N/A   Clear
2:15 PM 78.8 °F - N/A% 30.29 in 10.0 mi ESE 3.5 mph - N/A   Scattered Clouds
2:35 PM 78.8 °F - N/A% 30.27 in 10.0 mi ENE 6.9 mph - N/A   Clear
2:55 PM 78.8 °F - N/A% 30.26 in 10.0 mi East 4.6 mph - N/A   Clear
3:15 PM 78.8 °F - N/A% 30.25 in 10.0 mi ENE 6.9 mph - N/A   Clear
3:35 PM 80.6 °F - N/A% 30.25 in 10.0 mi NE 6.9 mph - N/A   Clear
3:55 PM 80.6 °F - N/A% 30.24 in 10.0 mi NE 9.2 mph - N/A   Clear
4:15 PM 80.6 °F - N/A% 30.22 in 10.0 mi ENE 4.6 mph - N/A   Clear
4:35 PM 80.6 °F - N/A% 30.22 in 10.0 mi NE 5.8 mph - N/A   Clear
4:55 PM 80.6 °F - N/A% 30.21 in 7.0 mi ENE 3.5 mph - N/A   Clear
5:15 PM 80.6 °F - N/A% 30.21 in 10.0 mi Calm Calm - N/A   Clear
5:35 PM 80.6 °F - N/A% 30.20 in 10.0 mi Calm Calm - N/A   Clear
5:55 PM 80.6 °F - N/A% 30.20 in 10.0 mi ENE 4.6 mph - N/A   Clear
6:15 PM 80.6 °F - N/A% 30.20 in 10.0 mi ENE 4.6 mph - N/A   Clear
6:35 PM 78.8 °F - N/A% 30.20 in 10.0 mi ENE 3.5 mph - N/A   Clear
6:55 PM 78.8 °F - N/A% 30.19 in 10.0 mi East 3.5 mph - N/A   Clear
7:15 PM 78.8 °F - N/A% 30.19 in 10.0 mi Calm Calm - N/A   Clear
7:35 PM 77.0 °F - N/A% 30.19 in 10.0 mi Calm Calm - N/A   Clear
7:55 PM 73.4 °F - N/A% 30.19 in 10.0 mi Calm Calm - N/A   Clear
8:15 PM 71.6 °F - N/A% 30.19 in 10.0 mi Calm Calm - N/A   Clear
8:35 PM 69.8 °F - N/A% 30.19 in 10.0 mi Calm Calm - N/A   Clear
8:55 PM 69.8 °F - N/A% 30.19 in 10.0 mi Calm Calm - N/A   Clear
9:15 PM 69.8 °F - N/A% 30.19 in 10.0 mi Calm Calm - N/A   Clear
9:35 PM 68.0 °F - N/A% 30.19 in 10.0 mi Calm Calm - N/A   Clear
9:55 PM 68.0 °F - N/A% 30.20 in 10.0 mi Calm Calm - N/A   Clear
10:15 PM 64.4 °F - N/A% 30.20 in 10.0 mi Calm Calm - N/A   Clear
10:35 PM 64.4 °F - N/A% 30.20 in 10.0 mi Calm Calm - N/A   Scattered Clouds
10:55 PM 64.4 °F - N/A% 30.20 in 10.0 mi Calm Calm - N/A   Scattered Clouds
11:15 PM 64.4 °F - N/A% 30.20 in 10.0 mi Calm Calm - N/A   Scattered Clouds
11:35 PM 64.4 °F - N/A% 30.20 in 10.0 mi Calm Calm - N/A   Scattered Clouds
11:55 PM 64.4 °F - N/A% 30.20 in 10.0 mi Calm Calm - N/A   Clear